Terminal Aerodrome Forecast
Issued by NWS Pueblo, CO

Home | Current Version | Previous Version | Text Only | Print | Product List | Glossary On
Versions: 1 2 3 4 5 6 7 8 9 10 11 12 13 14 15 16 17 18 19 20 21
000
FTUS45 KPUB 111138
TAFCOS
TAF
KCOS 111138Z 1112/1212 05010KT P6SM SCT150 BKN250
     FM111900 20014KT P6SM SCT200
     FM120100 17009KT P6SM SCT200=

USA.gov is the U.S. government's official web portal to all federal, state and local government web resources and services.